Regional Weather Roundup
Issued by NWS

Home | Current Version | Previous Version | Graphics & Text | Print | Product List | Glossary On
Versions: 1 2 3 4 5 6 7 8 9 10 11 12 13 14 15 16 17 18 19 20 21 22 23 24 25 26 27 28 29 30 31 32 33 34 35 36 37 38 39 40 41 42 43 44 45 46 47 48 49 50
000
ASUS45 KBOU 170007
RWRCO

WEATHER ROUNDUP FOR COLORADO
NATIONAL WEATHER SERVICE DENVER/BOULDER CO
500 PM MST TUE DEC 16 2014

NOTE: "FAIR" INDICATES FEW OR NO CLOUDS BELOW 12000 FEET WITH NO
SIGNIFICANT WEATHER AND/OR OBSTRUCTIONS TO VISIBILITY.

COZ001>005-013-030-031-170100-
...NORTHWEST COLORADO...

CITY           SKY/WX    TMP DP  RH WIND       PRES   REMARKS
CRAIG          CLOUDY    23  19  85 W6        30.06S WCI  16
HAYDEN         PTCLDY    27  19  74 SE3       30.05R
MEEKER         PTCLDY    25  20  81 CALM      30.06R
MOUNT WERNER   NOT AVBL
STEAMBOAT SPGS CLOUDY    26  22  87 CALM      30.05R
WALDEN         MOCLDY    16  12  86 NE3       30.04F
$$

COZ006>008-011-170100-
...WEST CENTRAL VALLEYS...

CITY           SKY/WX    TMP DP  RH WIND       PRES   REMARKS
GRAND JUNCTION MOCLDY    36  27  69 S6        30.07R
MONTROSE       CLOUDY    41  26  55 E6        30.07S
EAGLE          PTCLDY    23  19  86 CALM      30.13F
RIFLE          PTCLDY    32  25  75 S3        30.07S
DELTA          MOCLDY    44  28  54 W5        30.06S
NUCLA          MOCLDY    36  25  64 CALM      30.11S
$$

COZ017>023-064>068-170100-
...SOUTHWEST COLORADO...

CITY           SKY/WX    TMP DP  RH WIND       PRES   REMARKS
DURANGO        CLOUDY    38  22  52 S3        30.11R
CORTEZ         CLOUDY    42  26  53 W5        30.07S
PAGOSA SPRINGS CLOUDY    34  27  75 CALM      30.13S
TELLURIDE      NOT AVBL
WOLF CREEK PAS MOCLDY    18  14  86 MISG      30.14F
$$

COZ009-010-012-014-032>034-037-058>063-170100-
...CENTRAL COLORADO...

CITY           SKY/WX    TMP DP  RH WIND       PRES   REMARKS
ASPEN          CLOUDY    27  22  81 CALM      30.05S
BUENA VISTA    PTCLDY    33  12  41 E8        30.05S WCI  26
COPPER MTN     MOCLDY    28  18  64 SW5G16    30.11R WCI  23
BERTHOUD PASS  CLOUDY    19  14  79 MISG      30.11F HAZE
COTTONWOOD PAS PTCLDY    36  14  41 CALM      30.07S
GUNNISON       MOCLDY    27  18  69 CALM      30.11F
KREMMLING      PTCLDY    14  10  85 CALM      30.12F
LEADVILLE      PTCLDY    29  15  56 E6        30.05S WCI  23
MONARCH PASS   MOCLDY    21  14  73 MISG      30.20F
SALIDA         PTCLDY    39  13  33 W7G17     30.13R
SUNLIGHT       PTCLDY    27  23  86 CALM      30.10R
WILKERSON PASS PTCLDY    27  16  63 SW8       30.11F WCI  18
$$

COZ069>075-170100-
...SAN LUIS VALLEY/SANGRE DE CRISTO MOUNTAINS...

CITY           SKY/WX    TMP DP  RH WIND       PRES   REMARKS
ALAMOSA        PTCLDY    30  18  60 NE8       30.10S WCI  22
LA VETA PASS   PTCLDY    27  14  59 S17G29    30.07F WCI  14
SAGUACHE       MOCLDY    34  10  37 SE6       30.12S WCI  29
$$

COZ035-036-038>040-170100-
...NORTHERN COLORADO FRONT RANGE...

CITY           SKY/WX    TMP DP  RH WIND       PRES   REMARKS
DENVER INTL AP MOCLDY    30  21  69 NW3       30.03F
DMNS CITY PARK   N/A     32  20  62 N1        30.05S
AURORA         MOCLDY    28  20  74 W2        30.05R
FRONT RANGE AP NOT AVBL
ERIE MUNI ARPT   N/A     33  22  65 CALM      30.05S
BOULDER MUN AP MOCLDY    32  23  69 E3        30.03F
CENTENNIAL     MOCLDY    28  20  71 NW6       30.04R WCI  22
BROOMFIELD     MOCLDY    32  23  69 MISG        N/A
FORT COLLINS   MOCLDY    30  19  64 SE6       30.07R WCI  24
LONGMONT       CLOUDY    36  24  62 CALM      30.06F
$$

COZ041-046-047-076>085-087-088-170100-
...PIKES PEAK/PALMER DIVIDE AND SOUTHERN FOOTHILLS...

CITY           SKY/WX    TMP DP  RH WIND       PRES   REMARKS
COLO. SPRINGS  PTCLDY    30  16  56 SE6       30.05R WCI  24
A. F. ACADEMY  PTCLDY    29  16  57 S6        30.03S WCI  23
ELLICOTT       NOT AVBL
FALCON         MOCLDY    28  16  61 S5        30.05R WCI  23
FORT CARSON    PTCLDY    29  16  57 SE6       30.04R WCI  23
LIMON          CLOUDY    27  19  72 S12       30.05R WCI  17
MONUMENT HILL  PTCLDY    32  21  64 NW10      30.02R WCI  24
TRINIDAD       MOCLDY    35  26  69 E7        30.03R WCI  29
$$

COZ042>045-048>051-090-091-170100-
...NORTHEAST COLORADO...

CITY           SKY/WX    TMP DP  RH WIND       PRES   REMARKS
GREELEY ARPT   MOCLDY    28  18  64 SE6       30.05S WCI  22
AKRON          CLOUDY    26  24  92 SE10      30.08R WCI  16
BURLINGTON     CLOUDY    30  20  66 SE9       30.11F WCI  22
WRAY           CLOUDY    25  25 100 E9        30.15S WCI  15
STERLING       CLOUDY    27  23  86 NE9       30.12R WCI  17
HOLYOKE        NOT AVBL
FORT MORGAN    CLOUDY    26  22  84 N10       30.08S WCI  16
$$

COZ086-089-092>099-170100-
...SOUTHEAST COLORADO...

CITY           SKY/WX    TMP DP  RH WIND       PRES   REMARKS
PUEBLO         NOT AVBL
LA JUNTA       MOCLDY    31  26  82 N6        30.06F WCI  25
LAMAR          CLOUDY    36  22  56 E13       30.07F
SPRINGFIELD      N/A     41  26  55 S15       30.07S
$$


USA.gov is the U.S. government's official web portal to all federal, state and local government web resources and services.